Location: Newark
(39.6889°N, 28.1522°E)
Time: 16:35:42
(UTC+00:00)

Hubble Space Telescope - Visible Passes

Search period start: 22 October 2019 00:00
Search period end: 01 November 2019 00:00
Orbit: 536 x 540 km, 28.5° (Epoch: 21 October)

Date Brightness Start Highest point End Pass type
(mag) Time Alt. Az. Time Alt. Az. Time Alt. Az.
29 Oct 3.6 03:09:42 10° S 03:10:08 10° SSE 03:10:36 10° SSE visible
30 Oct 3.4 02:57:54 10° S 02:59:25 12° SSE 03:00:57 10° SE visible
31 Oct 3.2 02:47:15 11° S 02:48:43 13° SSE 02:50:44 10° SE visible
